Content
SEND FEEDBACK

Daily
Averages
Monthly
Summary
United States of America

RAPID CITY, SOUTH DAKOTA


Home > North America > United States > South Dakota
Elevation: 963 meters     Latitude: 44 03N     Longitude: 103 04W

WEATHER
 
SELECT A DAY
Number of Records: 200,374;   Date Range: 1/1/95 - 8/12/14
 
SHARE

PRINT THIS DATA

[ ← Previous Day ]
WEATHER ALMANAC - 21 MARCH, 2014
[ Next Day → ]
[ °F ]   °C
Weather ElementAverageHighLow
Temperature-1.1 °C1.1 °C (6:52 am)-6.1 °C (11:52 pm)
Dewpoint-5.6 °C-3 °C (10:08 am)-9.4 °C (11:52 pm)
Humidity71.7 %80 % (10:08 am)59 % (6:52 am)
Barometer1022.4 hPa1030.8 hPa (10:52 pm)1012.9 hPa (1:52 am)
Wind Speed29.9 km/h53.8 km/h (8:52 am)
Wind Gust72.3 km/h (9:06 am)
Weather ElementAverage
Visibility15.1 km
Wind DirectionWSW (234 °)

Weather ElementTotal
Precipitation---
Heating Degree Days20.8 (Base 18.3)
Averaged from 30 records on 21 March, 2014
WEATHER CONDITIONS BREAKOUT
WIND DIRECTION BREAKOUT
WEATHER BY HOUR - 21 MARCH, 2014
[ °F ]   °C
Local TimeTemperatureDewpointHumidityBarometerVisibilityWind DirectionWind SpeedGust SpeedPrecipitationEventsConditions
1:52 AM-0.6 °C-6.1 °C67 %1012.9 hPa16.1 kmNNW (330°)22.2 km/hClear
2:52 AM-2.2 °C-7.2 °C69 %1013.2 hPa16.1 kmNW (310°)9.3 km/hClear
3:52 AM-0.6 °C-6.7 °C64 %1013.2 hPa16.1 kmNW (320°)18.5 km/hClear
4:52 AM-3.3 °C-7.2 °C75 %1014.2 hPa16.1 kmNW (320°)13 km/hClear
5:52 AM0 °C-6.1 °C64 %1014.6 hPa16.1 kmNW (320°)24.1 km/hClear
6:52 AM1.1 °C-6.1 °C59 %1015.6 hPa16.1 kmNW (320°)35.2 km/h51.8 km/hClear
7:52 AM1.1 °C-3.3 °C73 %1017.9 hPa16.1 kmNNW (340°)44.4 km/h53.8 km/hClear
8:52 AM1.1 °C-3.9 °C70 %1019.3 hPa16.1 kmNNW (340°)53.8 km/h66.6 km/hScattered Clouds
9:06 AM1 °C-4 °C70 %1017.3 hPa16.1 kmNNW (340°)50.1 km/h72.3 km/hMostly Cloudy
9:52 AM0.6 °C-3.3 °C75 %1021.3 hPa11.3 kmNNW (340°)48.1 km/h66.6 km/h0 mmSnowLight Snow
10:08 AM0 °C-3 °C80 %1019.3 hPa8 kmNNW (340°)42.6 km/h59.2 km/h0 mmSnowLight Snow
10:52 AM-0.6 °C-3.9 °C79 %1022.7 hPa9.7 kmNorth (360°)42.6 km/h51.8 km/h0 mmSnowLight Snow
11:06 AM0 °C-4 °C75 %1020.7 hPa14.5 kmNorth (360°)38.9 km/h53.8 km/h0 mmSnowLight Snow
11:52 AM-0.6 °C-5 °C72 %1024.4 hPa16.1 kmNorth (360°)40.7 km/h48.1 km/h0 mmOvercast
12:52 PM0.6 °C-5 °C66 %1024.4 hPa16.1 kmNorth (360°)27.8 km/hOvercast
1:14 PM1 °C-5 °C65 %1021.7 hPa16.1 kmNorth (360°)29.6 km/h40.7 km/hOvercast
1:26 PM0 °C-4 °C75 %1021.7 hPa11.3 kmNNE (20°)35.2 km/h46.3 km/h0 mmSnowLight Snow
1:52 PM-0.6 °C-3.9 °C79 %1025.1 hPa16.1 kmNorth (10°)31.5 km/h0 mmOvercast
2:52 PM0 °C-4.4 °C73 %1025.7 hPa16.1 kmNorth (10°)20.4 km/h0 mmOvercast
3:52 PM0 °C-5 °C69 %1025.4 hPa14.5 kmNorth (360°)22.2 km/h0 mmSnowLight Snow
4:03 PM0 °C-5 °C69 %1022.4 hPa14.5 kmNorth (350°)27.8 km/h0 mmSnowLight Snow
4:26 PM0 °C-6 °C64 %1022.4 hPa16.1 kmNorth (360°)27.8 km/h0 mmOvercast
4:52 PM-0.6 °C-5.6 °C69 %1026.4 hPa16.1 kmNNE (20°)24.1 km/h0 mmOvercast
5:52 PM-1.7 °C-6.1 °C72 %1026.8 hPa16.1 kmNorth (10°)25.9 km/hOvercast
6:52 PM-2.8 °C-6.7 °C75 %1027.8 hPa16.1 kmNNE (20°)27.8 km/hOvercast
7:52 PM-3.3 °C-7.2 °C75 %1028.4 hPa16.1 kmNNE (20°)29.6 km/hOvercast
8:52 PM-3.9 °C-7.8 °C75 %1029.5 hPa16.1 kmNNE (30°)20.4 km/hOvercast
9:52 PM-5 °C-8.3 °C78 %1030.5 hPa16.1 kmNNE (20°)24.1 km/hOvercast
10:52 PM-5.6 °C-8.9 °C78 %1030.8 hPa16.1 kmNorth (360°)20.4 km/hOvercast
11:52 PM-6.1 °C-9.4 °C78 %1030.8 hPa16.1 kmNorth (10°)20.4 km/hOvercast
Hourly data recorded from KRAP, located 0 kilometers away from Rapid City, South Dakota







STORIES FROM OUR PARTNERS